Fort Worth Meacham International Airport
KFTW : now visible

Airfield :











YOU CAN JOIN US ON...

 
LOGIN :

Register | Disclaimer

   EN    FR    IT 

 









Legend :    VFR   Marginal VFR   IFR   Intensive IFR   Very Intensive IFR
Visi :
Ceiling :
>= 8 km
>= 3000ft
5 to 8 km
1000 to 3000 ft
1500m to 5 km
500 to 1000 ft
800 to 1500m
200 to 500 ft
< 800m
< 200 ft
Symbols :   Thunderstorms  Fog  Heavy snow  Heavy precipitations  Wind > 20 kt






- Airport Elevation : 710 ft
- IATA code : FTW


KFTW - Fort Worth Meacham International

CURRENT METAR :
  • 280453Z 17005KT 10SM BKN100 OVC120 21/15 A2988 RMK AO2 SLP109 T02110150

EXPIRED METARs :
  • 280353Z 18004KT 10SM FEW110 22/14 A2987 RMK AO2 SLP107 T02220144
  • 280253Z 17004KT 10SM CLR 23/14 A2985 RMK AO2 SLP099 T02280139 51011

TAF KFTW
Valid from the 28 at 06:00 until the 29 at 06:00 UTC


280523Z 2806/2906 17005KT P6SM SCT110 BKN250
FM281100 30007KT P6SM BKN100
FM282200 34012KT P6SM SCT050 BKN250
KZFW FIR / North America



MET'MAP, your aeronautical weather chart ! - Copyright ORBIFLY December 2007 - Disclaimer

ORBIFLY MET'MAP TEAM :

Programming & Development : Alexandra Zaïnal
Concept & original design : Baudouin d'Aumeries
Assistance for programming : Marc-Olivier Méhu
Technical & hardware support : Manuel Goepfert

Contact : metmap@orbifly.com




SOURCES & CREDITS :

   NOAA       Earth
Advisory